Location: Walton
(43.6794°N, 81.3017°W)
Time: 01:28:39
(UTC+00:00)

Cosmos 2180 Rocket - Pass Details

Date: 10 March 2026
Orbit: 952 x 1004 km, 82.9° (Epoch: 14 April)

Event Time Altitude Azimuth Distance (km) Brightness Sun altitude
Rises 00:32:09 0° 342° (NNW) 3,643 7.8 -13.1°
Reaches altitude 10° 00:34:56 10° 332° (NNW) 2,690 7.3 -13.6°
Maximum altitude 00:40:06 29° 274° (W) 1,657 6.6 -14.5°
Drops below altitude 10° 00:45:16 10° 216° (SW) 2,675 7.2 -15.4°
Sets 00:48:03 0° 206° (SSW) 3,619 7.7 -15.9°
